GFSFLT1_prec_pwat_132.txt.gz
Precipitable_Water
0.09 0.10 0.18 0.32 0.42 0.51 0.61 0.81 0.86 0.93 1.22 1.33 1.30 1.19 1.13 1.07 1.05 1.03 1.03 1.03 1.06 1.08 1.12 1.14 1.12 1.14 1.10 1.08 1.09 1.15 1.12 1.14
0.11 0.11 0.11 0.18 0.30 0.39 0.53 0.71 0.81 0.96 1.13 1.24 1.25 1.14 1.11 1.08 1.06 1.09 1.08 1.07 1.06 1.08 1.12 1.15 1.15 1.10 1.12 1.12 1.10 1.04 1.02 1.13
0.13 0.13 0.13 0.13 0.19 0.30 0.46 0.66 0.82 0.90 1.03 1.13 1.28 1.26 1.26 1.20 1.16 1.13 1.16 1.13 1.10 1.09 1.12 1.13 1.15 1.11 1.12 1.14 1.10 1.02 1.00 1.06
0.17 0.16 0.14 0.12 0.15 0.20 0.33 0.47 0.74 0.87 0.94 1.12 1.17 1.29 1.35 1.27 1.19 1.13 1.13 1.18 1.14 1.14 1.16 1.18 1.16 1.16 1.09 1.11 1.13 1.07 0.95 1.02
0.20 0.18 0.14 0.12 0.13 0.17 0.25 0.39 0.54 0.77 0.96 1.00 0.99 0.91 0.93 1.04 1.08 1.12 1.18 1.21 1.19 1.22 1.22 1.25 1.22 1.20 1.16 1.13 1.17 1.14 1.08 0.96
0.21 0.17 0.14 0.13 0.13 0.16 0.24 0.34 0.46 0.65 0.89 0.96 0.97 0.94 0.93 0.97 1.10 1.14 1.18 1.23 1.26 1.27 1.28 1.29 1.27 1.24 1.20 1.19 1.18 1.16 1.16 1.05
0.23 0.20 0.18 0.14 0.14 0.17 0.27 0.38 0.44 0.65 0.91 0.98 1.02 0.99 0.93 0.95 1.01 1.08 1.11 1.14 1.24 1.29 1.30 1.29 1.31 1.27 1.23 1.20 1.20 1.19 1.18 1.14
0.48 0.37 0.29 0.15 0.17 0.20 0.31 0.41 0.46 0.63 0.83 1.00 1.11 1.06 1.03 0.93 0.95 1.01 1.06 1.07 1.18 1.20 1.30 1.32 1.27 1.25 1.27 1.25 1.21 1.21 1.20 1.15
0.64 0.60 0.52 0.40 0.36 0.32 0.45 0.49 0.59 0.71 0.89 1.08 1.21 1.16 1.12 1.09 1.09 1.09 1.12 1.16 1.19 1.25 1.33 1.37 1.29 1.24 1.30 1.30 1.28 1.25 1.25 1.22
0.68 0.60 0.55 0.50 0.50 0.51 0.58 0.66 0.83 0.93 1.01 1.20 1.26 1.21 1.16 1.19 1.23 1.25 1.32 1.34 1.23 1.25 1.38 1.35 1.27 1.29 1.31 1.32 1.26 1.23 1.23 1.23
0.72 0.65 0.64 0.64 0.61 0.65 0.75 0.83 0.93 1.01 1.12 1.27 1.29 1.30 1.34 1.33 1.37 1.32 1.37 1.32 1.27 1.30 1.32 1.34 1.31 1.30 1.30 1.30 1.26 1.26 1.22 1.24
0.69 0.74 0.75 0.84 0.79 0.80 0.80 0.83 1.04 1.23 1.22 1.27 1.28 1.30 1.35 1.39 1.38 1.40 1.35 1.31 1.30 1.29 1.31 1.39 1.26 1.26 1.26 1.25 1.24 1.24 1.21 1.22
0.66 0.77 0.83 0.89 0.89 0.87 0.86 0.98 1.08 1.10 1.15 1.26 1.22 1.24 1.18 1.21 1.34 1.34 1.43 1.35 1.36 1.36 1.38 1.33 1.26 1.26 1.26 1.25 1.19 1.20 1.17 1.12
0.67 0.73 0.75 0.81 0.86 0.86 0.88 0.96 1.00 1.12 1.20 1.17 1.21 1.22 1.20 1.25 1.28 1.36 1.39 1.36 1.33 1.35 1.39 1.37 1.27 1.24 1.21 1.20 1.18 1.14 1.11 1.13
0.64 0.66 0.72 0.78 0.83 0.89 0.88 0.93 0.98 1.02 1.05 1.12 1.13 1.16 1.17 1.27 1.32 1.35 1.31 1.29 1.29 1.32 1.34 1.38 1.31 1.25 1.22 1.21 1.20 1.19 1.18 1.17
0.62 0.65 0.71 0.74 0.79 0.85 0.87 0.90 0.92 0.94 0.94 0.92 0.89 0.93 0.99 1.08 1.12 1.12 1.23 1.25 1.27 1.29 1.32 1.39 1.40 1.31 1.30 1.20 1.23 1.19 1.14 1.10
0.60 0.63 0.67 0.68 0.66 0.70 0.76 0.80 0.80 0.81 0.81 0.82 0.86 0.87 0.85 0.85 0.90 0.99 1.02 1.12 1.18 1.24 1.27 1.26 1.27 1.39 1.33 1.25 1.17 1.10 1.08 1.02
0.58 0.61 0.64 0.67 0.64 0.63 0.62 0.63 0.67 0.67 0.70 0.77 0.79 0.82 0.86 0.88 0.95 0.92 0.96 1.02 1.11 1.15 1.22 1.26 1.30 1.25 1.20 1.18 1.19 1.11 1.05 1.00
0.51 0.59 0.62 0.63 0.63 0.61 0.60 0.59 0.58 0.57 0.57 0.58 0.65 0.75 0.79 0.86 0.89 0.94 0.96 0.99 1.04 1.11 1.19 1.21 1.20 1.21 1.17 1.16 1.14 1.11 1.06 1.02

GFSFLT1_prec_pwat_135.txt.gz
Precipitable_Water
0.18 0.18 0.18 0.17 0.14 0.21 0.38 0.48 0.76 1.02 1.16 1.25 1.25 1.23 1.29 1.23 1.08 1.02 1.01 1.02 1.05 1.04 1.08 1.11 1.11 1.08 1.09 1.10 1.03 1.08 1.13 1.13
0.27 0.21 0.19 0.19 0.17 0.14 0.22 0.40 0.54 0.96 1.04 1.09 1.06 1.03 1.15 1.26 1.16 1.05 1.05 1.05 1.05 1.04 1.05 1.09 1.12 1.05 1.06 1.13 1.10 1.03 1.04 1.10
0.36 0.38 0.24 0.21 0.20 0.16 0.14 0.26 0.43 0.82 0.98 1.01 1.02 1.01 1.16 1.28 1.25 1.12 1.08 1.06 1.04 1.04 1.04 1.04 1.11 1.08 1.06 1.09 1.07 1.04 1.06 1.09
0.43 0.44 0.42 0.27 0.22 0.20 0.15 0.18 0.32 0.66 0.94 1.07 1.05 1.12 1.27 1.32 1.25 1.17 1.11 1.10 1.09 1.07 1.07 1.06 1.09 1.13 1.05 1.07 1.10 1.06 0.98 1.08
0.51 0.50 0.51 0.31 0.25 0.23 0.19 0.16 0.24 0.51 0.88 1.02 1.00 0.96 0.97 1.14 1.16 1.20 1.16 1.16 1.13 1.14 1.14 1.11 1.09 1.14 1.12 1.11 1.15 1.11 1.07 0.99
0.61 0.68 0.64 0.33 0.26 0.25 0.21 0.16 0.22 0.34 0.77 0.91 0.95 0.93 0.92 1.08 1.26 1.21 1.21 1.21 1.21 1.17 1.18 1.14 1.12 1.14 1.17 1.17 1.16 1.13 1.13 1.06
0.78 0.81 0.76 0.51 0.26 0.25 0.20 0.16 0.22 0.29 0.64 0.84 0.91 0.87 0.93 1.00 1.02 1.06 1.09 1.15 1.24 1.20 1.21 1.19 1.19 1.18 1.19 1.22 1.24 1.21 1.15 1.12
0.75 0.66 0.65 0.64 0.53 0.24 0.18 0.19 0.19 0.30 0.53 0.72 0.87 0.90 0.96 0.96 0.95 0.96 0.95 1.04 1.16 1.19 1.20 1.19 1.20 1.24 1.27 1.26 1.23 1.20 1.19 1.15
0.71 0.67 0.62 0.63 0.57 0.48 0.24 0.22 0.23 0.39 0.53 0.67 0.81 0.92 1.03 1.03 1.02 1.00 1.00 1.02 1.06 1.21 1.21 1.23 1.28 1.30 1.31 1.30 1.28 1.25 1.21 1.18
0.65 0.69 0.59 0.58 0.59 0.57 0.60 0.43 0.35 0.45 0.59 0.72 0.80 0.91 1.04 1.09 1.10 1.13 1.10 1.12 1.14 1.22 1.28 1.26 1.31 1.31 1.35 1.33 1.22 1.23 1.24 1.21
0.63 0.69 0.64 0.58 0.60 0.62 0.60 0.67 0.66 0.74 0.84 0.95 0.95 1.05 1.11 1.14 1.18 1.20 1.18 1.22 1.20 1.25 1.37 1.37 1.33 1.34 1.35 1.32 1.23 1.29 1.27 1.28
0.61 0.68 0.68 0.61 0.59 0.62 0.67 0.67 0.79 0.81 0.93 1.03 1.06 1.19 1.28 1.27 1.29 1.33 1.33 1.32 1.30 1.30 1.40 1.37 1.33 1.30 1.31 1.28 1.29 1.29 1.28 1.29
0.61 0.66 0.67 0.66 0.64 0.63 0.65 0.67 0.77 0.85 0.89 0.92 1.01 1.15 1.34 1.39 1.38 1.36 1.40 1.41 1.38 1.45 1.46 1.42 1.33 1.28 1.31 1.32 1.26 1.28 1.25 1.23
0.60 0.64 0.65 0.65 0.69 0.71 0.68 0.70 0.73 0.84 0.92 0.94 1.02 1.05 1.24 1.27 1.36 1.40 1.35 1.31 1.30 1.35 1.36 1.33 1.39 1.38 1.30 1.27 1.29 1.24 1.24 1.26
0.57 0.60 0.63 0.68 0.73 0.77 0.78 0.78 0.84 0.83 0.93 0.96 1.05 1.06 1.15 1.20 1.24 1.28 1.30 1.28 1.20 1.21 1.37 1.40 1.45 1.45 1.38 1.32 1.26 1.26 1.22 1.18
0.55 0.57 0.61 0.66 0.70 0.75 0.80 0.83 0.87 0.96 0.96 0.98 1.06 1.07 1.11 1.13 1.15 1.21 1.23 1.27 1.33 1.40 1.38 1.38 1.42 1.45 1.39 1.36 1.27 1.23 1.22 1.18
0.52 0.57 0.59 0.62 0.65 0.71 0.75 0.79 0.84 0.89 0.91 0.92 0.95 0.99 1.04 1.06 1.10 1.14 1.14 1.16 1.21 1.29 1.34 1.34 1.32 1.38 1.41 1.40 1.36 1.31 1.23 1.21
0.50 0.55 0.58 0.62 0.62 0.61 0.61 0.66 0.72 0.77 0.83 0.85 0.87 0.87 0.86 0.88 0.93 0.99 1.03 1.09 1.18 1.19 1.24 1.30 1.30 1.37 1.38 1.42 1.38 1.29 1.19 1.14
0.49 0.51 0.56 0.57 0.62 0.59 0.58 0.58 0.59 0.60 0.59 0.61 0.72 0.80 0.82 0.85 0.91 0.92 0.92 0.93 0.99 1.07 1.08 1.15 1.23 1.19 1.32 1.27 1.25 1.21 1.16 1.14

GFSFLT1_prec_pwat_138.txt.gz
Precipitable_Water
0.38 0.39 0.36 0.36 0.39 0.36 0.23 0.22 0.25 0.50 0.78 1.20 1.18 1.29 1.28 1.21 1.20 1.21 1.15 1.09 1.10 1.10 1.08 1.08 1.10 1.08 1.11 1.13 1.10 1.12 1.11 1.11
0.46 0.50 0.52 0.52 0.42 0.39 0.34 0.22 0.23 0.28 0.53 0.92 1.11 1.12 1.29 1.30 1.27 1.29 1.32 1.15 1.11 1.07 1.06 1.09 1.07 1.02 1.03 1.09 1.10 1.08 1.09 1.12
0.47 0.54 0.54 0.59 0.58 0.49 0.42 0.31 0.22 0.23 0.32 0.77 1.07 1.16 1.24 1.32 1.28 1.25 1.33 1.24 1.08 1.07 1.04 1.05 1.04 1.02 1.03 1.04 1.09 1.07 1.12 1.18
0.51 0.53 0.58 0.65 0.68 0.71 0.60 0.43 0.30 0.24 0.25 0.61 1.03 1.20 1.30 1.30 1.16 1.14 1.21 1.31 1.14 1.08 1.08 1.06 1.04 1.07 1.00 1.02 1.08 1.06 0.99 1.09
0.54 0.55 0.60 0.65 0.73 0.81 0.78 0.57 0.38 0.28 0.28 0.48 0.93 1.01 1.01 1.12 1.12 1.13 1.16 1.30 1.22 1.06 1.09 1.10 1.06 1.07 1.05 1.04 1.11 1.09 1.07 0.95
0.52 0.55 0.61 0.66 0.72 0.74 0.81 0.61 0.49 0.33 0.27 0.34 0.87 1.01 1.06 1.16 1.13 1.16 1.15 1.28 1.28 1.15 1.12 1.12 1.09 1.08 1.10 1.09 1.08 1.10 1.11 1.05
0.55 0.62 0.66 0.66 0.69 0.72 0.72 0.59 0.42 0.36 0.29 0.30 0.77 0.92 1.02 1.09 1.20 1.09 1.10 1.24 1.26 1.24 1.21 1.13 1.12 1.11 1.10 1.10 1.12 1.14 1.13 1.11
0.55 0.58 0.62 0.64 0.65 0.71 0.74 0.60 0.35 0.36 0.27 0.31 0.77 0.89 1.07 1.12 1.07 0.98 1.13 1.19 1.23 1.23 1.26 1.17 1.12 1.12 1.14 1.16 1.16 1.15 1.17 1.14
0.56 0.59 0.62 0.61 0.65 0.67 0.65 0.59 0.37 0.31 0.26 0.33 0.68 0.88 1.00 1.10 1.11 1.02 1.11 1.20 1.24 1.24 1.28 1.27 1.23 1.19 1.20 1.19 1.21 1.22 1.24 1.24
0.55 0.62 0.63 0.57 0.60 0.63 0.61 0.55 0.57 0.32 0.28 0.36 0.64 0.88 0.95 0.95 1.04 1.09 1.13 1.19 1.23 1.18 1.22 1.25 1.29 1.27 1.25 1.23 1.26 1.28 1.32 1.25
0.55 0.60 0.64 0.57 0.58 0.58 0.62 0.57 0.59 0.65 0.76 0.74 0.87 0.97 1.03 1.07 1.13 1.14 1.18 1.21 1.17 1.16 1.14 1.16 1.25 1.32 1.32 1.29 1.30 1.37 1.30 1.29
0.54 0.59 0.65 0.56 0.57 0.63 0.61 0.62 0.60 0.66 0.76 0.91 1.04 1.06 1.09 1.12 1.13 1.16 1.18 1.28 1.25 1.19 1.23 1.23 1.24 1.35 1.39 1.32 1.34 1.40 1.32 1.24
0.57 0.59 0.62 0.62 0.55 0.58 0.62 0.62 0.63 0.68 0.78 0.81 0.85 0.97 1.14 1.18 1.16 1.19 1.28 1.27 1.33 1.31 1.32 1.29 1.31 1.39 1.37 1.37 1.41 1.41 1.35 1.22
0.55 0.58 0.60 0.63 0.59 0.59 0.61 0.63 0.67 0.70 0.78 0.84 0.90 0.96 1.02 1.04 1.08 1.15 1.23 1.29 1.35 1.37 1.37 1.35 1.32 1.33 1.35 1.39 1.42 1.43 1.37 1.31
0.52 0.56 0.58 0.61 0.62 0.61 0.63 0.62 0.68 0.72 0.75 0.79 0.85 0.85 0.88 1.01 1.11 1.20 1.19 1.28 1.31 1.31 1.33 1.34 1.33 1.34 1.34 1.38 1.37 1.46 1.40 1.33
0.48 0.54 0.56 0.60 0.62 0.64 0.66 0.66 0.69 0.72 0.74 0.78 0.85 0.92 0.93 1.00 1.10 1.16 1.28 1.31 1.35 1.32 1.29 1.29 1.31 1.24 1.25 1.28 1.43 1.41 1.37 1.31
0.44 0.51 0.57 0.59 0.62 0.64 0.69 0.72 0.72 0.75 0.75 0.75 0.81 0.91 0.96 0.98 1.03 1.07 1.16 1.21 1.27 1.30 1.28 1.25 1.23 1.29 1.31 1.31 1.28 1.41 1.39 1.34
0.41 0.46 0.52 0.57 0.61 0.63 0.62 0.67 0.74 0.77 0.79 0.80 0.84 0.87 0.94 0.93 1.01 1.04 1.06 1.11 1.21 1.21 1.23 1.28 1.28 1.25 1.27 1.33 1.43 1.38 1.37 1.36
0.40 0.43 0.47 0.54 0.55 0.61 0.60 0.59 0.60 0.62 0.66 0.74 0.85 0.84 0.84 0.90 0.96 0.98 0.99 1.06 1.10 1.10 1.12 1.16 1.19 1.19 1.28 1.30 1.40 1.41 1.39 1.33

GFSFLT1_prec_pwat_144.txt.gz
Precipitable_Water
0.49 0.47 0.44 0.44 0.46 0.46 0.44 0.42 0.45 0.48 0.51 0.53 0.60 0.55 0.55 0.87 1.56 1.40 1.34 1.18 1.08 1.15 1.15 1.10 1.12 1.12 1.12 1.08 1.03 1.09 1.13 1.13
0.46 0.45 0.44 0.45 0.46 0.47 0.48 0.46 0.49 0.52 0.49 0.45 0.54 0.59 0.52 0.53 1.01 1.50 1.48 1.33 1.16 1.07 1.15 1.10 1.10 1.06 1.08 1.12 1.05 1.05 1.09 1.16
0.41 0.41 0.44 0.47 0.47 0.47 0.47 0.49 0.52 0.54 0.55 0.56 0.57 0.61 0.62 0.51 0.49 1.08 1.67 1.50 1.27 1.12 1.06 1.09 1.06 1.04 1.07 1.10 1.03 0.99 1.06 1.13
0.37 0.40 0.43 0.46 0.46 0.47 0.48 0.49 0.52 0.57 0.60 0.59 0.57 0.63 0.69 0.56 0.40 0.61 1.06 1.75 1.43 1.24 1.10 1.09 1.08 1.03 1.01 1.04 1.05 0.96 0.90 1.07
0.39 0.40 0.42 0.44 0.47 0.50 0.50 0.50 0.54 0.60 0.66 0.64 0.63 0.60 0.59 0.63 0.50 0.38 0.76 1.11 1.70 1.20 1.17 1.09 1.11 1.07 1.03 1.03 1.08 1.00 0.95 0.89
0.39 0.41 0.43 0.47 0.49 0.50 0.51 0.53 0.60 0.66 0.63 0.63 0.66 0.66 0.71 0.77 0.70 0.42 0.50 0.74 1.45 1.51 1.33 1.11 1.13 1.13 1.05 1.02 1.04 1.02 0.97 0.94
0.40 0.42 0.44 0.46 0.51 0.52 0.52 0.57 0.65 0.64 0.60 0.62 0.64 0.65 0.70 0.79 0.71 0.50 0.53 0.55 1.10 1.73 1.57 1.25 1.25 1.24 1.15 1.04 1.01 1.00 0.99 0.99
0.37 0.39 0.41 0.46 0.50 0.53 0.56 0.62 0.62 0.61 0.61 0.63 0.68 0.71 0.74 0.76 0.76 0.48 0.55 0.70 0.65 1.22 1.51 1.49 1.36 1.33 1.25 1.16 1.04 0.98 0.99 0.97
0.36 0.39 0.42 0.45 0.50 0.56 0.60 0.64 0.62 0.62 0.64 0.58 0.60 0.70 0.79 0.73 0.72 0.52 0.45 1.03 0.74 0.83 1.57 1.59 1.50 1.47 1.40 1.26 1.13 1.02 1.02 1.02
0.34 0.39 0.41 0.45 0.53 0.59 0.62 0.62 0.65 0.62 0.63 0.63 0.62 0.68 0.74 0.72 0.64 0.56 0.47 1.02 1.01 1.02 0.96 1.66 1.68 1.53 1.50 1.35 1.23 1.06 1.04 1.07
0.34 0.36 0.39 0.45 0.56 0.61 0.65 0.66 0.62 0.61 0.66 0.66 0.64 0.65 0.69 0.75 0.65 0.54 0.57 0.88 1.43 1.06 1.00 1.31 1.34 1.56 1.53 1.39 1.35 1.23 1.09 1.11
0.35 0.35 0.38 0.44 0.56 0.62 0.65 0.68 0.62 0.64 0.67 0.71 0.67 0.69 0.71 0.73 0.74 0.68 0.79 0.87 1.25 1.06 0.91 1.03 1.31 1.40 1.44 1.49 1.40 1.30 1.17 1.14
0.35 0.35 0.37 0.41 0.51 0.61 0.65 0.66 0.62 0.67 0.71 0.75 0.72 0.69 0.73 0.73 0.70 0.74 0.96 1.13 1.12 1.11 1.08 1.07 1.30 1.37 1.40 1.42 1.43 1.33 1.21 1.15
0.34 0.35 0.35 0.38 0.46 0.56 0.64 0.65 0.62 0.67 0.71 0.78 0.84 0.79 0.75 0.82 0.89 1.05 1.04 1.15 1.16 1.09 1.16 1.21 1.21 1.26 1.37 1.45 1.48 1.36 1.32 1.27
0.32 0.34 0.35 0.37 0.44 0.49 0.61 0.64 0.62 0.62 0.67 0.73 0.78 0.85 0.92 0.99 1.02 1.08 1.11 1.11 0.99 1.06 1.09 1.19 1.27 1.26 1.41 1.38 1.39 1.37 1.34 1.26
0.30 0.32 0.34 0.36 0.39 0.44 0.54 0.62 0.64 0.60 0.61 0.67 0.72 0.79 0.86 0.91 0.95 1.00 1.11 1.12 1.03 1.30 1.21 1.14 1.28 1.41 1.31 1.34 1.29 1.30 1.32 1.28
0.29 0.32 0.34 0.35 0.38 0.41 0.46 0.58 0.60 0.62 0.56 0.61 0.66 0.71 0.75 0.80 0.85 0.93 0.96 1.03 1.07 1.08 1.24 1.24 1.33 1.41 1.33 1.34 1.32 1.31 1.29 1.26
0.28 0.31 0.33 0.34 0.37 0.40 0.43 0.48 0.60 0.60 0.60 0.57 0.55 0.61 0.66 0.69 0.73 0.77 0.83 0.87 0.94 0.98 1.01 1.10 1.15 1.18 1.24 1.32 1.33 1.34 1.28 1.27
0.29 0.31 0.33 0.36 0.38 0.40 0.42 0.46 0.48 0.60 0.59 0.58 0.58 0.55 0.60 0.63 0.66 0.66 0.68 0.76 0.79 0.84 0.87 0.93 1.00 1.06 1.11 1.20 1.23 1.23 1.27 1.34